TimeEDT,TemperatureF,Dew PointF,Humidity,Sea Level PressureIn,VisibilityMPH,Wind Direction,Wind SpeedMPH,Gust SpeedMPH,PrecipitationIn,Events,Conditions,WindDirDegrees,DateUTC
12:53 AM,42.1,39.9,92,29.95,10.0,Calm,Calm,-,N/A,,Clear,0,2013-09-25 04:53:00
1:53 AM,42.1,39.0,89,29.95,10.0,Calm,Calm,-,N/A,,Clear,0,2013-09-25 05:53:00
2:53 AM,42.1,39.0,89,29.94,10.0,Calm,Calm,-,N/A,,Clear,0,2013-09-25 06:53:00
3:53 AM,41.0,37.9,89,29.94,10.0,Calm,Calm,-,N/A,,Clear,0,2013-09-25 07:53:00
4:53 AM,41.0,39.0,93,29.94,10.0,Calm,Calm,-,N/A,,Clear,0,2013-09-25 08:53:00
5:53 AM,39.0,36.0,89,29.94,10.0,Calm,Calm,-,N/A,,Clear,0,2013-09-25 09:53:00
6:53 AM,39.0,37.0,93,29.96,10.0,NNW,3.5,-,N/A,,Clear,340,2013-09-25 10:53:00
7:53 AM,48.9,46.9,93,29.95,10.0,Calm,Calm,-,N/A,,Clear,0,2013-09-25 11:53:00
8:53 AM,60.1,50.0,69,29.95,10.0,NNW,8.1,-,N/A,,Clear,330,2013-09-25 12:53:00
9:53 AM,64.0,48.9,58,29.95,10.0,NNW,9.2,-,N/A,,Clear,330,2013-09-25 13:53:00
10:53 AM,66.0,46.0,48,29.95,10.0,WNW,9.2,-,N/A,,Clear,290,2013-09-25 14:53:00
11:53 AM,66.9,43.0,42,29.94,10.0,WNW,6.9,-,N/A,,Clear,300,2013-09-25 15:53:00
12:53 PM,70.0,46.0,42,29.94,10.0,NNW,9.2,-,N/A,,Clear,340,2013-09-25 16:53:00
1:53 PM,69.1,48.9,49,29.92,10.0,SSW,8.1,-,N/A,,Clear,210,2013-09-25 17:53:00
2:53 PM,68.0,48.0,49,29.91,10.0,SW,10.4,-,N/A,,Clear,230,2013-09-25 18:53:00
3:53 PM,66.9,48.9,52,29.90,10.0,SW,9.2,-,N/A,,Clear,230,2013-09-25 19:53:00
4:53 PM,68.0,50.0,52,29.90,10.0,SW,3.5,-,N/A,,Clear,220,2013-09-25 20:53:00
5:53 PM,64.0,50.0,60,29.91,10.0,SW,5.8,-,N/A,,Clear,220,2013-09-25 21:53:00
6:53 PM,61.0,51.1,70,29.91,10.0,SW,3.5,-,N/A,,Clear,220,2013-09-25 22:53:00
7:53 PM,52.0,48.0,86,29.93,10.0,Calm,Calm,-,N/A,,Clear,0,2013-09-25 23:53:00
8:53 PM,50.0,46.9,89,29.94,10.0,Calm,Calm,-,N/A,,Clear,0,2013-09-26 00:53:00
9:53 PM,48.0,45.0,89,29.95,10.0,Calm,Calm,-,N/A,,Clear,0,2013-09-26 01:53:00
10:53 PM,46.0,44.1,93,29.95,10.0,Calm,Calm,-,N/A,,Clear,0,2013-09-26 02:53:00
11:53 PM,46.0,43.0,89,29.96,10.0,Calm,Calm,-,N/A,,Partly Cloudy,0,2013-09-26 03:53:00